Regional Weather Roundup
Issued by NWS

Home | Current Version | Previous Version | Text Only | Print | Product List | Glossary On
Versions: 1 2 3 4 5 6 7 8 9 10 11 12 13 14 15 16 17 18 19 20 21 22 23 24 25 26 27 28 29 30 31 32 33 34 35 36 37 38 39 40 41 42 43 44 45 46 47 48 49 50
000
ASUS42 KTBW 291417
RWRFL
FLORIDA REGIONAL WEATHER ROUNDUP
NATIONAL WEATHER SERVICE TAMPA BAY RUSKIN FL
1000 AM EDT WED JUL 29 2015

NOTE: "FAIR" INDICATES FEW OR NO CLOUDS BELOW 12,000 FEET WITH NO
SIGNIFICANT WEATHER AND/OR OBSTRUCTIONS TO VISIBILITY.


FLZ001>010-012>015-112-114-115-291500-
PANHANDLE FLORIDA

CITY           SKY/WX    TMP DP  RH WIND       PRES   REMARKS
PENSACOLA      SUNNY     86  73  65 NW12      30.01S
PENSACOLA NAS  PTSUNNY   85  75  72 NW12      30.01R
MILTON NAS     PTSUNNY   86  76  71 NW6       30.02  HX  96
CRESTVIEW      MOSUNNY   86  77  74 VRB5      30.03R HX  97
DUKE FIELD     PTSUNNY   85  76  74 NW7       30.02R
VALPARAISO     PTSUNNY   87  76  69 N6        30.00S HX  98
MARY ESTHER    MOSUNNY   89  74  61 NW14      29.99S HX  97
TRI COUNTY     FAIR      84  76  76 CALM      30.01R
PANAMA CITY    FAIR      87  76  69 NW8       29.99R HX  97
TYNDALL AFB    SUNNY     88  77  71 N7        30.00R HX 100
APALACHICOLA   SUNNY     88  78  72 NW10      29.99R HX 101

STATION/POSITION SKY/WX   TEMP    WIND        PRES    WAVE   SWELL
                          AIR SEA DIR/SP/G            HT/PER HT/PER
                          (F)     (DEG/KT/KT) (MB)    (FT/S) (FT/S)
30.1N   87.6W              84 84  300/ 14/ 16 1015.6R   2/ 4
29.2N   88.2W              86 87  330/ 14/ 16 1016.8R   2/ 3
28.8N   86.0W              87 87  320/ 12/ 16 1016.3R   2/ 4
PANAMA CITY BEAC           83 83  330/ 10/ 14 1015.3R
CAPE SAN BLAS    NOT AVBL
TOWER C                    85     310/ 14/ 15 1015.4R
28.5N   84.5W              87 85  310/ 10/ 12 1015.5R   2/ 4

$$
FLZ011-016>038-118-127-128-134-139-239-291500-
NORTH FLORIDA

CITY           SKY/WX    TMP DP  RH WIND       PRES   REMARKS
MARIANNA       MOSUNNY   84  77  79 N7        30.00R
TALLAHASSEE    MOSUNNY   88  76  67 NW7       29.99R HX  99
PERRY          SUNNY     85  81  86 CALM      29.99R HX 100
CROSS CITY       N/A     86  80  82 CALM      29.98R HX 101
LAKE CITY      FAIR      84  77  79 CALM      29.99R
GAINESVILLE    SUNNY     87  76  69 W3        29.99R HX  97
MAYPORT NAS    PTSUNNY   86  76  71 VRB5      29.98R HX  96
JACKSONVILLE   CLOUDY    86  76  71 NW6       29.98R HX  96
JAX NAS        PTSUNNY  N/A N/A N/A N6        29.99R
JAX CRAIG      MOSUNNY   86  75  69 N5        29.98R HX  95
JAX CECIL      SUNNY     84  75  74 CALM      29.99R
FERNANDINA BEA FAIR      86  77  74 N5        29.97R HX  97
ST AUGUSTINE   MOSUNNY   86  76  71 N7        29.98R HAZE    HX  96

STATION/POSITION SKY/WX   TEMP    WIND        PRES    WAVE   SWELL
                          AIR SEA DIR/SP/G            HT/PER HT/PER
                          (F)     (DEG/KT/KT) (MB)    (FT/S) (FT/S)
SHELL POINT                83     310/  5/  7   N/A
KEATON BEACH               86     310/  5/  6 1015.4R
CEDAR KEY                  87     320/  5/  8 1015.7R
FERNANDINA                 81 84  340/  7/  8 1014.3R
30.7N   81.3W                 82                N/A     2/ 5
MAYPORT                    81 82  340/  4/  6 1015.0R
31.4N   80.9W              81 82   40/  8/ 10 1015.2R   2/ 6   2/ 6
ST AUGUSTINE               81 80   10/  8/  8 1015.9R

$$
FLZ040-043>046-052-053-057-058-063-144-291500-
INTERIOR CENTRAL FLORIDA

CITY           SKY/WX    TMP DP  RH WIND       PRES   REMARKS
OCALA          SUNNY     84  77  79 CALM      30.00R
THE VILLAGES     N/A     84  84 100 W3        29.90R HX 104
LEESBURG       MOSUNNY   81  77  88 CALM      30.00R
SANFORD        PTSUNNY   80  76  87 NW6       29.98R
ORLANDO EXEC   PTSUNNY   81  79  94 SW6       29.99R
ORLANDO INTL   MOSUNNY   80  77  90 SW6       29.99R
KISSIMMEE      PTSUNNY   81  77  89 SW7       30.00R
WINTER HAVEN   MOSUNNY   83  77  82 VRB6      30.01R
BARTOW         PTSUNNY   82  79  89 SW8       30.01R
OKEECHOBEE     CLOUDY    81  77  89 SW5       30.01R

$$
FLZ041-047-054-059-064-141-147-291500-
EAST CENTRAL FLORIDA

CITY           SKY/WX    TMP DP  RH WIND       PRES   REMARKS
ORMOND BEACH   MOSUNNY   84  75  74 NW7       29.97R
DAYTONA BEACH  PTSUNNY   84  76  76 NW12      29.97R
DELAND           N/A     82  77  83 CALM      29.99R
NEW SMYRNA BEA MOSUNNY   82  75  78 W8        29.98R
JFK SPACE CTR  CLOUDY    79  75  87 SW7       29.97R
TITUSVILLE     MOSUNNY   77  75  94 SW6       29.99R
CAPE CANAVERAL CLOUDY    80  77  91 W7        29.97R
PATRICK AFB    PTSUNNY   81  77  89 W7        29.98R
MELBOURNE      PTSUNNY   80  77  90 SW7       29.99R
VERO BEACH     PTSUNNY   85  76  74 W12       30.00R
FT PIERCE      PTSUNNY   84  77  79 SW8       29.99R
STUART         PTSUNNY   81  75  83 SW10      30.01R

STATION/POSITION SKY/WX   TEMP    WIND        PRES    WAVE   SWELL
                          AIR SEA DIR/SP/G            HT/PER HT/PER
                          (F)     (DEG/KT/KT) (MB)    (FT/S) (FT/S)
28.5N   80.2W              79 81  240/ 10/ 10 1015.0R
28.9N   78.5W              83 84  240/ 17/ 21 1013.7R
TRIDENT PIER               79 77  220/  6/  7 1015.0S
28.4N   80.5W                 79                N/A     1/11
27.5N   80.2W                 76                N/A     1/11

$$
FLZ050-056-061-142-242-148-248-149-249-151-251-155-255-
160-260-291500-
WEST CENTRAL FLORIDA

CITY           SKY/WX    TMP DP  RH WIND       PRES   REMARKS
CRYSTAL RIVER  FAIR      86  81  84 NW3       29.98S HX 102
INVERNESS      FAIR      86  81  84 CALM      29.99R HX 102
BROOKSVILLE    MOSUNNY   85  80  85 W5        30.00R HX  99
ZEPHYRHILLS    FAIR      81  79  94 CALM      30.01R
CLEARWATER     MOSUNNY   85  79  82 W5        29.99S HX  98
TAMPA INTL     PTSUNNY   84  78  82 S3        30.00R HX  95
TAMPA EXEC     MOSUNNY   86  79  79 CALM      30.00S HX  99
PLANT CITY     MOSUNNY   86  81  84 SW5       30.02S HX 102
MACDILL AFB    MOSUNNY   89  82  81 W3        30.00R HX 110
PETER O KNIGHT MOSUNNY   86  81  84 CALM      30.00S HX 102
ST PETERSBURG  MOSUNNY   86  76  71 CALM      29.98R HX  96
SARASOTA       PTSUNNY   82  74  76 SW9       30.00R
VENICE         LGT RAIN  79  75  89 SE8       30.02S

STATION/POSITION SKY/WX   TEMP    WIND        PRES    WAVE   SWELL
                          AIR SEA DIR/SP/G            HT/PER HT/PER
                          (F)     (DEG/KT/KT) (MB)    (FT/S) (FT/S)
CEDAR KEY                  87     320/  5/  8 1015.7R
28.5N   84.5W              87 85  310/ 10/ 12 1015.5R   2/ 4
27.3N   84.2W                 84                N/A     2/ 4
CLEARWATER BEACH           84 83  300/  5/  5 1015.6R
MIDDLE TAMPA BAY           79     350/  3/  4 1015.8R
VENICE                     80 85  130/  8/  9 1015.9F

$$
FLZ066-069-070-075>078-162-262-165-265-291500-
SOUTHWEST FLORIDA AND KEYS

CITY           SKY/WX    TMP DP  RH WIND       PRES   REMARKS
PUNTA GORDA    TSTM      77  76  96 W13       30.05R
FT MYERS       CLOUDY    81  75  82 NW9       30.01R
SOUTHWEST INTL PTSUNNY   83  76  79 SW8       30.02R
NAPLES         PTSUNNY   88  79  74 W8        30.02R HX 103
MARCO ISLAND   PTSUNNY   84  73  70 NW6       30.02R
MARATHON       MOSUNNY   90  78  68 CALM      30.03R HX 104
KEY WEST NAS   MOSUNNY   89  73  59 N5        30.03R HX  97
KEY WEST INTL  SUNNY     87  73  62 VRB3      30.04R

STATION/POSITION SKY/WX   TEMP    WIND        PRES    WAVE   SWELL
                          AIR SEA DIR/SP/G            HT/PER HT/PER
                          (F)     (DEG/KT/KT) (MB)    (FT/S) (FT/S)
VENICE                     80 85  130/  8/  9 1015.9F
NAPLES                        85              1017.2R
26.0N   85.6W              83 84  280/  2/  4 1016.4R   1/ 9   2/ 9
DRY TORTUGAS               86     250/  1/  2 1016.8R
NW FL BAY                  86     210/  2/  3 1016.6
SAND KEY                   85      20/  2/  3 1017.0R
SOMBRERO KEY               85      50/  1/  2 1017.6R
LONG KEY                   91 88     CALM     1017.9R
MOLASSES REEF              85 87   10/  3/  4 1017.1R

$$
FLZ067-068-071>074-168-172>174-291500-
SOUTHEAST FLORIDA

CITY           SKY/WX    TMP DP  RH WIND       PRES   REMARKS
W PALM BEACH   CLOUDY    84  75  74 SW12      30.02R
FT LAUDER-EXEC PTSUNNY   85  76  74 SW8       30.02R
FT LAUDERDALE  PTSUNNY   84  77  79 W10       30.02R
POMPANO BEACH  CLOUDY    85  75  72 VRB7      30.02R
PEMBROKE PINES PTSUNNY   85  75  72 SW8       30.03R
OPA LOCKA      PTSUNNY   86  76  71 SW7       30.02S HX  96
MIAMI          PTSUNNY   85  75  72 S8        30.02S
WEST KENDALL   MOSUNNY   86  77  74 W7        30.02S HX  97
HOMESTEAD      MOSUNNY   86  73  66 W6        30.02S

STATION/POSITION SKY/WX   TEMP    WIND        PRES    WAVE   SWELL
                          AIR SEA DIR/SP/G            HT/PER HT/PER
                          (F)     (DEG/KT/KT) (MB)    (FT/S) (FT/S)
PORT EVERGLADES            84     240/  4/ 10 1016.6R
VIRGINIA KEY               83 86  240/  7/  8 1016.2R
LAKE WORTH                 81 84  220/  7/  9 1015.7R
SETTLEMENT POINT           84     250/ 13/ 15 1016.9R

$$



USA.gov is the U.S. government's official web portal to all federal, state and local government web resources and services.